K6OUA-11 Weather Reports


time (UTC)temp
F
wind
direction
speed
knots
gust
knots
rain 1hr
in
rain 24hr
in
rain mn
in
humidity
%
barometer
mb
20190117225551 57 258 2.6 4.3 0.00 0.00 0.08 100 1014.0
20190117225250 57 217 2.6 4.3 0.00 0.00 0.08 100 1014.1
20190117224648 57 236 0.9 3.5 0.00 0.00 0.08 100 1013.7
20190117224046 57 252 3.5 4.3 0.00 0.00 0.08 100 1013.7
20190117223745 57 256 4.3 4.3 0.00 0.00 0.08 100 1013.6
20190117223443 57 238 1.7 4.3 0.00 0.00 0.08 100 1013.5
20190117223144 57 247 0.9 4.3 0.00 0.00 0.08 100 1013.7
20190117222841 57 265 3.5 6.1 0.00 0.00 0.08 100 1013.7
20190117222542 57 270 2.6 7.0 0.00 0.00 0.08 100 1013.7
20190117222239 57 261 2.6 7.0 0.00 0.00 0.08 100 1013.8
20190117221336 57 256 3.5 6.1 0.00 0.00 0.08 100 1013.7
20190117221035 58 249 3.5 6.1 0.00 0.00 0.08 100 1013.8
20190117220734 58 254 2.6 7.8 0.00 0.00 0.08 100 1013.8
20190117220433 58 274 6.1 7.0 0.00 0.00 0.08 100 1013.6
20190117212217 58 261 2.6 4.3 0.00 0.00 0.08 100 1013.2
20190117211917 58 261 2.6 5.2 0.00 0.00 0.08 100 1013.0
20190117211617 58 270 4.3 6.1 0.00 0.00 0.08 100 1013.2
20190117211316 58 272 4.3 4.3 0.00 0.00 0.08 100 1013.2
20190117211013 58 240 2.6 3.5 0.00 0.00 0.08 100 1013.3
20190117210713 58 262 0.9 4.3 0.00 0.00 0.08 100 1013.3
20190117210410 59 270 3.5 3.5 0.00 0.00 0.08 100 1013.2
20190117210109 59 267 1.7 1.7 0.00 0.00 0.08 100 1013.4
20190117205810 58 270 2.6 2.6 0.00 0.00 0.08 100 1013.4
20190117205508 58 270 1.7 1.7 0.00 0.00 0.08 100 1013.4
20190117205207 58 225 0.0 0.9 0.00 0.00 0.08 100 1013.4
20190117204905 58 225 0.0 1.7 0.00 0.00 0.08 100 1013.4
20190117204604 58 227 0.9 2.6 0.00 0.00 0.08 100 1013.3
20190117204303 58 225 1.7 3.5 0.00 0.00 0.08 100 1013.4
20190117204004 58 189 0.9 3.5 0.00 0.00 0.08 100 1013.5
20190117203703 58 180 0.9 1.7 0.00 0.00 0.08 100 1013.6
20190117203359 58 173 0.9 4.3 0.00 0.00 0.08 100 1013.6
20190117202759 58 173 3.5 7.0 0.00 0.00 0.08 100 1013.6
20190117202458 58 261 1.7 2.6 0.00 0.00 0.08 100 1013.7
20190117202155 58 189 1.7 3.5 0.00 0.00 0.08 100 1013.8
20190117201854 58 211 1.7 4.3 0.00 0.00 0.08 100 1013.9
20190117201553 58 245 4.3 4.3 0.00 0.00 0.08 100 1013.9
20190117201251 58 243 0.9 2.6 0.00 0.00 0.08 100 1014.0
20190117200950 58 211 1.7 4.3 0.00 0.00 0.08 100 1014.0
20190117200649 58 250 0.9 6.1 0.00 0.00 0.08 100 1014.1
20190117200348 58 225 0.9 6.1 0.00 0.00 0.08 100 1014.3
20190117200047 58 241 0.9 4.3 0.00 0.00 0.08 100 1014.3
20190117195746 58 232 3.5 4.3 0.00 0.00 0.08 100 1014.2
20190117195445 58 235 4.3 5.2 0.00 0.00 0.08 100 1014.1
20190117195144 59 258 5.2 6.1 0.00 0.00 0.08 100 1014.2
20190117194843 59 270 5.2 9.6 0.00 0.00 0.08 100 1014.4
20190117194543 59 270 7.8 9.6 0.00 0.00 0.08 100 1014.3
20190117194242 59 272 7.8 7.8 0.00 0.00 0.08 100 1014.6
20190117193939 59 270 5.2 6.1 0.00 0.00 0.08 100 1014.7
20190117193638 59 234 1.7 2.6 0.00 0.00 0.08 100 1014.6
20190117193337 60 240 2.6 2.6 0.00 0.00 0.08 100 1014.6
20190117193036 60 238 1.7 2.6 0.00 0.00 0.08 100 1014.6
20190117192735 60 222 1.7 2.6 0.00 0.00 0.08 100 1014.6
20190117192434 60 229 0.9 2.6 0.00 0.00 0.08 100 1014.5
20190117192133 60 225 2.6 3.5 0.00 0.00 0.08 100 1014.6
20190117191833 60 175 2.6 2.6 0.00 0.00 0.08 100 1014.7
20190117191531 60 225 0.0 2.6 0.00 0.00 0.08 100 1014.6
20190117191230 60 225 0.9 3.5 0.00 0.00 0.08 100 1014.6
20190117190928 60 180 1.7 3.5 0.00 0.00 0.08 100 1014.6
20190117190627 60 202 1.7 2.6 0.00 0.00 0.08 100 1014.7
20190117190326 59 180 0.9 0.9 0.00 0.00 0.08 100 1014.5
20190117190025 59 225 0.0 0.9 0.00 0.00 0.08 100 1014.5
20190117185724 59 202 1.7 1.7 0.00 0.00 0.08 100 1014.4
20190117185122 59 180 1.7 1.7 0.00 0.00 0.08 100 1014.3
20190117184520 58 225 0.0 0.0 0.00 0.00 0.08 100 1014.2
20190117184218 58 225 0.0 2.6 0.00 0.00 0.08 100 1014.2
20190117183918 58 218 0.9 2.6 0.00 0.00 0.08 100 1014.3
20190117183616 58 225 0.0 1.7 0.00 0.00 0.08 100 1014.3
20190117183315 58 225 0.9 2.6 0.00 0.00 0.08 100 1014.3
20190117183014 58 193 2.6 2.6 0.00 0.00 0.08 100 1014.3
20190117182713 58 204 0.9 1.7 0.00 0.00 0.08 100 1014.3
20190117182412 58 225 0.0 1.7 0.00 0.00 0.08 100 1014.5
20190117182111 58 225 0.0 2.6 0.00 0.00 0.08 100 1014.3
20190117181509 58 175 2.6 3.5 0.00 0.00 0.08 100 1014.3
20190117181208 58 216 1.7 5.2 0.00 0.00 0.08 100 1014.5
20190117180906 58 220 3.5 5.2 0.00 0.00 0.08 100 1014.4
20190117180605 58 184 4.3 5.2 0.00 0.00 0.08 100 1014.2
20190117180003 58 175 2.6 5.2 0.00 0.00 0.08 100 1014.2
20190117175702 58 180 0.0 1.7 0.00 0.00 0.08 100 1014.2
20190117175401 58 225 0.0 2.6 0.00 0.00 0.08 100 1014.2
20190117175100 58 236 1.7 3.5 0.00 0.00 0.08 100 1014.2
20190117174457 58 231 0.9 4.3 0.00 0.00 0.08 100 1014.1
20190117174156 58 184 0.9 5.2 0.00 0.00 0.08 100 1013.9
20190117173855 58 204 1.7 5.2 0.00 0.00 0.08 100 1013.8
20190117173554 58 236 0.0 4.3 0.00 0.00 0.08 100 1013.8
20190117173253 58 195 1.7 5.2 0.00 0.00 0.08 100 1013.8
20190117172952 58 207 4.3 4.3 0.00 0.00 0.08 100 1013.8
20190117172350 58 234 2.6 3.5 0.00 0.00 0.08 100 1013.8
20190117172049 58 216 1.7 5.2 0.00 0.00 0.08 100 1013.6
20190117171747 58 250 1.7 6.1 0.00 0.00 0.08 100 1013.7
20190117171446 58 218 3.5 7.0 0.00 0.00 0.08 100 1013.5
20190117170844 58 227 0.9 5.2 0.00 0.00 0.08 100 1013.3
20190117170543 58 191 1.7 7.8 0.00 0.00 0.08 100 1013.4
20190117170242 58 191 5.2 7.8 0.00 0.00 0.08 100 1013.4
20190117165941 58 209 0.9 8.7 0.00 0.00 0.08 100 1013.4
20190117165341 58 234 3.5 5.2 0.00 0.00 0.08 100 1013.3
20190117165039 58 199 1.7 5.2 0.00 0.00 0.07 100 1013.3
20190117164736 58 138 1.7 7.0 0.00 0.00 0.07 100 1013.1
20190117164435 58 195 5.2 6.1 0.00 0.00 0.07 100 1013.1
20190117164134 58 176 5.2 5.2 0.00 0.00 0.07 100 1013.0
20190117163532 58 218 3.5 7.0 0.00 0.00 0.07 100 1012.9
20190117163231 58 219 0.9 7.0 0.00 0.00 0.06 100 1012.7
20190117162629 58 202 3.5 6.1 0.00 0.00 0.06 100 1012.9
20190117162328 58 227 2.6 5.2 0.00 0.00 0.06 100 1012.9
20190117162026 58 195 1.7 2.6 0.00 0.00 0.05 100 1012.6
20190117161725 58 227 2.6 5.2 0.00 0.00 0.05 100 1012.6
20190117161424 58 227 3.5 12.2 0.00 0.00 0.05 100 1012.5
20190117161123 58 200 7.0 12.2 0.00 0.00 0.05 100 1012.7
20190117160824 58 252 3.5 7.8 0.00 0.00 0.04 100 1012.6
20190117160521 58 227 5.2 8.7 0.00 0.00 0.03 100 1012.8
20190117160220 58 247 8.7 8.7 0.00 0.00 0.02 100 1012.7
20190117155318 58 231 2.6 9.6 0.00 0.00 0.01 100 1012.5
20190117154714 58 198 3.5 3.5 0.00 0.00 0.01 100 1012.4
20190117154413 58 191 0.9 5.2 0.00 0.00 0.01 100 1012.3
20190117154112 58 234 0.9 7.0 0.00 0.00 0.01 100 1012.2
20190117153811 58 191 6.1 7.0 0.00 0.00 0.01 100 1011.9
20190117153510 58 189 3.5 8.7 0.00 0.00 0.01 100 1011.9
20190117153209 58 265 6.1 8.7 0.00 0.00 0.01 100 1012.0
20190117152908 58 227 8.7 8.7 0.00 0.00 0.01 100 1012.0
20190117152607 58 221 1.7 8.7 0.00 0.00 0.01 100 1011.9
20190117152307 58 265 4.3 7.0 0.00 0.00 0.00 100 1011.9
20190117152004 58 167 5.2 6.1 0.00 0.00 0.00 100 1012.0
20190117151703 58 227 5.2 8.7 0.00 0.00 0.00 100 1011.9
20190117151101 58 235 8.7 8.7 0.00 0.00 0.00 100 1012.2
20190117150800 58 186 6.1 6.1 0.00 0.00 0.23 100 1012.2
20190117150501 58 229 4.3 4.3 0.00 0.00 0.22 100 1012.3
20190117150159 58 202 2.6 6.1 0.00 0.00 0.22 100 1012.4
20190117145858 58 177 2.6 7.8 0.00 0.00 0.22 100 1012.4
20190117145556 58 151 3.5 7.8 0.00 0.00 0.22 100 1012.1
20190117145256 58 180 1.7 6.1 0.00 0.00 0.20 100 1012.2
20190117144953 58 254 2.6 5.2 0.00 0.00 0.20 100 1012.1
20190117144654 58 204 1.7 5.2 0.00 0.00 0.20 100 1012.2
20190117144351 58 213 2.6 7.0 0.00 0.00 0.19 100 1012.2
20190117144050 58 231 3.5 11.3 0.00 0.00 0.19 100 1012.1
20190117143749 58 213 4.3 11.3 0.00 0.00 0.19 100 1011.9
20190117143448 58 254 0.0 15.6 0.00 0.00 0.18 100 1012.0
20190117143147 58 218 3.5 15.6 0.00 0.00 0.18 100 1011.8
20190117142846 58 236 3.5 6.1 0.00 0.00 0.17 100 1011.8
20190117142544 58 245 2.6 9.6 0.00 0.00 0.17 100 1011.7
20190117142244 58 243 2.6 6.1 0.00 0.00 0.17 100 1011.8
20190117141942 58 274 0.9 10.4 0.00 0.00 0.17 100 1011.8
20190117141641 58 197 5.2 7.8 0.00 0.00 0.16 100 1011.6
20190117141340 58 212 0.9 13.0 0.00 0.00 0.16 100 1011.5
20190117141039 58 212 3.5 7.0 0.00 0.00 0.16 100 1011.3
20190117140740 58 236 2.6 7.8 0.00 0.00 0.16 100 1011.4
20190117140437 58 235 6.1 7.8 0.00 0.00 0.16 100 1011.1
20190117140136 58 184 7.8 10.4 0.00 0.00 0.16 100 1011.3
20190117135836 58 166 7.8 10.4 0.00 0.00 0.16 100 1011.4
20190117135533 58 198 3.5 9.6 0.00 0.00 0.16 100 1011.4
20190117135232 58 193 4.3 10.4 0.00 0.00 0.16 100 1011.3
20190117134931 58 177 10.4 10.4 0.00 0.00 0.16 100 1011.2
20190117134630 58 236 1.7 9.6 0.00 0.00 0.16 100 1011.3
20190117134329 58 231 3.5 9.6 0.00 0.00 0.16 100 1011.1
20190117134028 58 253 3.5 8.7 0.00 0.00 0.16 100 1011.2
20190117133729 58 213 2.6 10.4 0.00 0.00 0.16 100 1011.3
20190117133426 58 171 3.5 8.7 0.00 0.00 0.16 100 1011.1
20190117133126 58 157 7.8 8.7 0.00 0.00 0.16 100 1011.1
20190117132825 58 209 4.3 7.8 0.00 0.00 0.16 100 1011.1
20190117132522 58 220 2.6 7.8 0.00 0.00 0.15 100 1011.3
20190117132221 58 234 2.6 6.1 0.00 0.00 0.15 100 1011.1
20190117131922 58 177 2.6 10.4 0.00 0.00 0.15 100 1011.1
20190117131619 58 177 10.4 10.4 0.00 0.00 0.15 100 1011.1
20190117131318 58 183 0.9 8.7 0.00 0.00 0.15 100 1011.1
20190117131017 58 171 2.6 7.8 0.00 0.00 0.15 100 1011.0
20190117130716 58 202 0.9 7.0 0.00 0.00 0.15 100 1011.0
20190117130114 58 171 4.3 5.2 0.00 0.00 0.15 100 1011.2
20190117125812 58 180 2.6 5.2 0.00 0.00 0.15 100 1011.0
20190117125511 58 195 2.6 7.0 0.00 0.00 0.15 100 1011.0
20190117125211 58 155 4.3 7.0 0.00 0.00 0.15 100 1011.1
20190117124910 58 159 0.9 4.3 0.00 0.00 0.15 100 1011.2
20190117124610 58 198 2.6 4.3 0.00 0.00 0.15 100 1011.1
20190117124307 58 198 5.2 6.1 0.00 0.00 0.15 100 1011.0
20190117124007 58 180 3.5 7.8 0.00 0.00 0.15 100 1011.0
20190117123707 58 137 3.5 6.1 0.00 0.00 0.15 100 1011.1
20190117123404 58 157 2.6 4.3 0.00 0.00 0.15 100 1011.2
20190117123102 58 135 3.5 6.1 0.00 0.00 0.15 100 1011.1
20190117122500 58 130 2.6 7.8 0.00 0.00 0.15 100 1011.2
20190117122159 58 173 3.5 7.8 0.00 0.00 0.14 100 1011.3
20190117121858 58 191 5.2 7.8 0.00 0.00 0.14 100 1011.3
20190117121559 58 162 5.2 7.8 0.00 0.00 0.14 100 1011.3
20190117120354 58 159 2.6 7.0 0.00 0.00 0.11 100 1011.3
20190117120051 58 162 4.3 7.8 0.00 0.00 0.11 100 1011.5
20190117115750 58 180 3.5 7.8 0.00 0.00 0.11 100 1011.5
20190117115150 58 195 3.5 8.7 0.00 0.00 0.11 100 1011.8
20190117114849 58 164 6.1 7.8 0.00 0.00 0.11 100 1011.8
20190117114548 58 184 5.2 7.8 0.00 0.00 0.11 100 1011.8
20190117113940 58 182 4.3 6.1 0.00 0.00 0.11 100 1012.0
20190117113638 58 146 3.5 6.1 0.00 0.00 0.11 100 1012.0
20190117113336 58 180 4.3 6.1 0.00 0.00 0.11 100 1012.0
20190117113035 58 180 0.9 6.1 0.00 0.00 0.11 100 1012.0
20190117112734 58 162 4.3 6.1 0.00 0.00 0.11 100 1012.0
20190117112134 58 173 2.6 7.8 0.00 0.00 0.11 100 1012.0
20190117111832 58 189 1.7 4.3 0.00 0.00 0.11 100 1012.2
20190117111530 58 166 4.3 4.3 0.00 0.00 0.11 100 1012.2
20190117111229 58 180 4.3 5.2 0.00 0.00 0.11 100 1012.3
20190117110928 58 185 3.5 7.8 0.00 0.00 0.09 100 1012.3
20190117110628 58 180 3.5 7.8 0.00 0.00 0.09 100 1012.5
20190117110325 57 186 4.3 4.3 0.00 0.00 0.09 100 1012.3
20190117110024 57 195 5.2 7.0 0.00 0.00 0.09 100 1012.3
20190117105723 57 168 3.5 5.2 0.00 0.00 0.09 100 1012.2
20190117105422 57 147 3.5 6.1 0.00 0.00 0.09 100 1012.3
20190117105121 57 162 6.1 6.1 0.00 0.00 0.09 100 1012.1
20190117104820 57 132 2.6 5.2 0.00 0.00 0.09 100 1012.1
20190117104521 57 171 3.5 4.3 0.00 0.00 0.09 100 1012.1
20190117104220 57 144 3.5 4.3 0.00 0.00 0.09 100 1012.2
20190117103917 57 184 3.5 4.3 0.00 0.00 0.09 100 1012.1
20190117103316 57 168 3.5 6.1 0.00 0.00 0.09 100 1012.3
20190117103013 57 180 0.9 6.1 0.00 0.00 0.09 100 1012.3
20190117102712 57 182 3.5 8.7 0.00 0.00 0.09 100 1012.4
20190117102411 57 177 2.6 7.8 0.00 0.00 0.09 100 1012.4
20190117102110 57 175 3.5 7.0 0.00 0.00 0.09 100 1012.5
20190117101809 57 191 0.9 6.1 0.00 0.00 0.09 100 1012.5
20190117101508 57 144 1.7 5.2 0.00 0.00 0.09 100 1012.4
20190117101207 57 180 4.3 6.1 0.00 0.00 0.09 100 1012.5
20190117100906 57 175 3.5 4.3 0.00 0.00 0.09 100 1012.4
20190117100606 57 135 2.6 7.8 0.00 0.00 0.09 100 1012.5
20190117100304 57 175 4.3 8.7 0.00 0.00 0.09 100 1012.6
20190117100003 57 182 5.2 8.7 0.00 0.00 0.09 100 1012.7
20190117095400 57 166 5.2 6.1 0.00 0.00 0.09 100 1012.7
20190117095059 57 140 3.5 4.3 0.00 0.00 0.09 100 1012.8
20190117094758 57 153 1.7 4.3 0.00 0.00 0.09 100 1012.8
20190117094457 57 137 2.6 4.3 0.00 0.00 0.09 100 1012.9
20190117094155 57 155 2.6 5.2 0.00 0.00 0.09 100 1012.9
20190117093854 57 171 6.1 7.0 0.00 0.00 0.09 100 1012.9
20190117093252 57 189 0.9 3.5 0.00 0.00 0.09 100 1012.9
20190117092951 57 177 0.9 1.7 0.00 0.00 0.09 100 1012.9
20190117092650 57 180 2.6 2.6 0.00 0.00 0.09 100 1012.9
20190117092349 57 168 0.9 2.6 0.00 0.00 0.09 100 1013.0
20190117092048 57 180 0.0 3.5 0.00 0.00 0.09 100 1013.0
20190117091747 57 180 0.0 1.7 0.00 0.00 0.09 100 1012.9
20190117091446 57 198 0.0 2.6 0.00 0.00 0.09 100 1013.1
20190117091144 57 180 0.9 2.6 0.00 0.00 0.09 100 1013.2
20190117090843 57 173 2.6 6.1 0.00 0.00 0.09 100 1013.3
20190117090542 57 148 3.5 6.1 0.00 0.00 0.08 100 1013.2
20190117090241 57 182 2.6 6.1 0.00 0.00 0.08 100 1013.3
20190117085942 57 175 3.5 9.6 0.00 0.00 0.08 100 1013.3
20190117085639 56 171 1.7 9.6 0.00 0.00 0.08 100 1013.4
20190117085338 56 166 2.6 6.1 0.00 0.00 0.08 100 1013.4
20190117085037 56 146 0.9 5.2 0.00 0.00 0.08 100 1013.3
20190117084736 56 114 1.7 5.2 0.00 0.00 0.08 100 1013.4
20190117084434 56 126 1.7 2.6 0.00 0.00 0.08 100 1013.5
20190117084133 56 90 0.9 2.6 0.00 0.00 0.08 100 1013.5
20190117083832 56 90 0.9 1.7 0.00 0.00 0.08 100 1013.6
20190117083531 56 157 0.0 2.6 0.00 0.00 0.08 100 1013.5
20190117083230 57 171 1.7 3.5 0.00 0.00 0.08 100 1013.6
20190117082929 56 148 1.7 5.2 0.00 0.00 0.08 100 1013.5
20190117082628 56 87 5.2 5.2 0.00 0.00 0.08 100 1013.5
20190117082327 56 94 5.2 6.1 0.00 0.00 0.08 100 1013.6
20190117082026 56 101 2.6 5.2 0.00 0.00 0.08 100 1013.6
20190117081725 56 90 3.5 5.2 0.00 0.00 0.08 100 1013.6
20190117081424 56 81 4.3 5.2 0.00 0.00 0.08 100 1013.8
20190117081122 56 94 2.6 5.2 0.00 0.00 0.08 100 1013.8
20190117080821 56 90 3.5 5.2 0.00 0.00 0.08 100 1014.0
20190117080520 56 85 5.2 5.2 0.00 0.00 0.08 100 1014.1
20190117080219 56 87 1.7 2.6 0.00 0.00 0.08 100 1014.3
20190117075918 56 90 1.7 1.7 0.00 0.00 0.08 100 1014.4
20190117075617 56 108 0.9 2.6 0.00 0.00 0.08 100 1014.4
20190117075316 56 114 1.7 2.6 0.00 0.00 0.08 100 1014.6
20190117075015 56 112 1.7 2.6 0.00 0.00 0.08 100 1014.5
20190117074713 56 90 0.9 1.7 0.00 0.00 0.08 100 1014.6
20190117074412 56 83 0.9 1.7 0.00 0.00 0.08 100 1014.6
20190117074113 56 119 0.9 1.7 0.00 0.00 0.08 100 1014.7
20190117073810 56 155 0.9 2.6 0.00 0.00 0.08 100 1014.6
20190117073509 56 96 1.7 2.6 0.00 0.00 0.07 100 1014.7
20190117073210 56 137 1.7 2.6 0.00 0.00 0.07 100 1014.6
20190117072907 56 114 2.6 2.6 0.00 0.00 0.07 100 1014.6
20190117072306 56 90 1.7 2.6 0.00 0.00 0.07 100 1014.9
20190117072004 56 126 1.7 1.7 0.00 0.00 0.07 100 1015.0
20190117071703 56 112 1.7 1.7 0.00 0.00 0.07 100 1015.0
20190117071402 56 90 0.9 0.9 0.00 0.00 0.07 100 1015.1
20190117071236 56 135 0.9 0.9 0.00 0.00 0.07 100 1014.9
20190117071227 56 135 0.9 0.9 0.00 0.00 0.07 100 1015.0
20190117071220 56 225 0.0 0.0 0.00 0.00 0.07 100 1014.8
20190117071152 56 180 0.9 0.9 0.00 0.00 0.07 100 1015.0
20190117071144 56 225 0.0 2.6 0.00 0.00 0.07 100 1014.8
20190117071139 56 103 1.7 4.3 0.00 0.00 0.07 100 1014.7
20190117071132 56 105 0.9 0.9 0.00 0.00 0.07 100 1015.0
20190117071127 56 225 0.0 0.9 0.00 0.00 0.07 100 1014.9
20190117071100 56 45 0.9 1.7 0.00 0.00 0.07 100 1015.1
20190117071057 56 225 0.0 2.6 0.00 0.00 0.07 100 1014.8
20190117071053 56 225 0.0 0.0 0.00 0.00 0.07 100 1014.8
20190117071050 56 225 0.0 0.9 0.00 0.00 0.07 100 1014.9
20190117071009 56 225 0.0 2.6 0.00 0.00 0.07 100 1014.8
20190117071005 56 103 1.7 4.3 0.00 0.00 0.07 100 1014.7
20190117070944 56 105 0.9 0.9 0.00 0.00 0.07 100 1015.0
20190117070924 56 225 0.0 0.0 0.00 0.00 0.07 100 1014.8
20190117070920 56 225 0.0 0.9 0.00 0.00 0.07 100 1014.9
20190117070916 56 225 0.0 0.9 0.00 0.00 0.07 100 1014.8
20190117070902 56 105 0.9 0.9 0.00 0.00 0.07 100 1015.0
20190117070844 56 225 0.0 0.9 0.00 0.00 0.07 100 1014.8
20190117070841 56 225 0.0 2.6 0.00 0.00 0.07 100 1014.8
20190117070837 56 85 3.5 3.5 0.00 0.00 0.07 100 1014.7
20190117070834 56 135 0.9 0.9 0.00 0.00 0.07 100 1014.9
20190117070830 56 225 0.0 0.0 0.00 0.00 0.07 100 1014.8
20190117070827 56 225 0.0 0.9 0.00 0.00 0.07 100 1014.9
20190117070817 56 105 0.9 0.9 0.00 0.00 0.07 100 1015.0
20190117070806 56 180 0.9 0.9 0.00 0.00 0.07 100 1015.0
20190117070800 56 135 0.9 0.9 0.00 0.00 0.07 100 1014.9
20190117070754 56 225 0.0 0.9 0.00 0.00 0.07 100 1014.9
20190117070749 56 135 0.9 0.9 0.00 0.00 0.07 100 1015.0
20190117070746 56 225 0.0 0.0 0.00 0.00 0.07 100 1014.8
20190117070737 56 105 0.9 0.9 0.00 0.00 0.07 100 1015.0
20190117070729 56 180 0.9 0.9 0.00 0.00 0.07 100 1015.0
20190117070723 56 135 0.9 0.9 0.00 0.00 0.07 100 1014.9
20190117070715 56 225 0.0 2.6 0.00 0.00 0.07 100 1014.8
20190117070707 56 135 0.9 0.9 0.00 0.00 0.07 100 1015.0
20190117070705 56 225 0.0 0.0 0.00 0.00 0.07 100 1014.8
20190117070656 56 105 0.9 0.9 0.00 0.00 0.07 100 1015.0
20190117070649 56 180 0.9 0.9 0.00 0.00 0.07 100 1015.0
20190117070642 56 135 0.9 0.9 0.00 0.00 0.07 100 1014.9
20190117070637 56 225 0.0 0.9 0.00 0.00 0.07 100 1014.9
20190117070635 56 103 1.7 4.3 0.00 0.00 0.07 100 1014.7
20190117070633 56 85 3.5 3.5 0.00 0.00 0.07 100 1014.7
20190117070629 56 135 0.9 0.9 0.00 0.00 0.07 100 1015.0
20190117070627 56 225 0.0 0.0 0.00 0.00 0.07 100 1014.8
20190117070613 56 105 0.9 0.9 0.00 0.00 0.07 100 1015.0
20190117070609 56 180 0.9 0.9 0.00 0.00 0.07 100 1015.0
20190117070603 56 135 0.9 0.9 0.00 0.00 0.07 100 1014.9
20190117070558 56 225 0.0 0.9 0.00 0.00 0.07 100 1014.9
20190117070556 56 103 1.7 4.3 0.00 0.00 0.07 100 1014.7
20190117070553 56 135 0.9 0.9 0.00 0.00 0.07 100 1015.0
20190117070548 56 225 0.0 0.0 0.00 0.00 0.07 100 1014.8
20190117070543 56 90 2.6 2.6 0.00 0.00 0.07 100 1014.9
20190117070540 56 105 0.9 0.9 0.00 0.00 0.07 100 1015.0
20190117070533 56 180 0.9 0.9 0.00 0.00 0.07 100 1015.0
20190117070526 56 135 0.9 0.9 0.00 0.00 0.07 100 1014.9
20190117070523 56 225 0.0 0.9 0.00 0.00 0.07 100 1014.9
20190117070520 56 225 0.0 0.9 0.00 0.00 0.07 100 1014.8
20190117070515 56 135 0.9 0.9 0.00 0.00 0.07 100 1015.0
20190117070512 56 225 0.0 0.0 0.00 0.00 0.07 100 1014.8
20190117070506 56 105 0.9 0.9 0.00 0.00 0.07 100 1015.0
20190117070500 56 90 2.6 2.6 0.00 0.00 0.07 100 1014.9
20190117070455 56 180 0.9 0.9 0.00 0.00 0.07 100 1015.0
20190117070450 56 135 0.9 0.9 0.00 0.00 0.07 100 1014.9
20190117070447 56 225 0.0 0.9 0.00 0.00 0.07 100 1014.9
20190117070445 56 103 1.7 4.3 0.00 0.00 0.07 100 1014.7
20190117070439 56 85 3.5 3.5 0.00 0.00 0.07 100 1014.7
20190117070435 56 135 0.9 0.9 0.00 0.00 0.07 100 1015.0
20190117070430 56 105 0.9 0.9 0.00 0.00 0.07 100 1015.0
20190117070424 56 90 2.6 2.6 0.00 0.00 0.07 100 1014.9
20190117070417 56 135 0.9 0.9 0.00 0.00 0.07 100 1014.9
20190117070415 56 225 0.0 0.9 0.00 0.00 0.07 100 1014.9
20190117070407 56 85 3.5 3.5 0.00 0.00 0.07 100 1014.7
20190117070402 56 225 0.0 0.0 0.00 0.00 0.07 100 1014.8
20190117070350 56 90 2.6 2.6 0.00 0.00 0.07 100 1014.9
20190117070343 56 135 0.9 0.9 0.00 0.00 0.07 100 1014.9
20190117070341 56 225 0.0 2.6 0.00 0.00 0.07 100 1014.8
20190117070334 56 85 3.5 3.5 0.00 0.00 0.07 100 1014.7
20190117070332 56 135 0.9 0.9 0.00 0.00 0.07 100 1015.0
20190117070323 56 105 0.9 0.9 0.00 0.00 0.07 100 1015.0
20190117070317 56 90 2.6 2.6 0.00 0.00 0.07 100 1014.9
20190117070310 56 135 0.9 0.9 0.00 0.00 0.07 100 1014.9
20190117070308 56 225 0.0 0.9 0.00 0.00 0.07 100 1014.8
20190117070306 56 103 1.7 4.3 0.00 0.00 0.07 100 1014.7
20190117070301 56 85 3.5 3.5 0.00 0.00 0.07 100 1014.7
20190117070257 56 225 0.0 0.0 0.00 0.00 0.07 100 1014.8
20190117070249 56 105 0.9 0.9 0.00 0.00 0.07 100 1015.0
20190117070242 56 90 2.6 2.6 0.00 0.00 0.07 100 1014.9
20190117070236 56 92 1.7 2.6 0.00 0.00 0.07 100 1014.9
20190117070233 56 225 0.0 0.9 0.00 0.00 0.07 100 1014.9
20190117070217 56 105 0.9 0.9 0.00 0.00 0.07 100 1015.0
20190117070207 56 90 2.6 2.6 0.00 0.00 0.07 100 1014.9
20190117070202 56 92 1.7 2.6 0.00 0.00 0.07 100 1014.9
20190117070159 56 103 1.7 4.3 0.00 0.00 0.07 100 1014.7
20190117070157 56 90 0.9 1.7 0.00 0.00 0.07 100 1015.1
20190117070155 56 225 0.0 0.0 0.00 0.00 0.07 100 1014.8
20190117070133 56 90 2.6 2.6 0.00 0.00 0.07 100 1014.9
20190117070129 56 92 1.7 2.6 0.00 0.00 0.07 100 1014.9
20190117070127 56 135 0.9 0.9 0.00 0.00 0.07 100 1014.9
20190117070125 56 103 1.7 4.3 0.00 0.00 0.07 100 1014.7
20190117070123 56 135 0.9 0.9 0.00 0.00 0.07 100 1015.0
20190117070111 56 105 0.9 0.9 0.00 0.00 0.07 100 1015.0
20190117070100 56 90 2.6 2.6 0.00 0.00 0.07 100 1014.9
20190117070056 56 135 0.9 0.9 0.00 0.00 0.07 100 1014.9
20190117070054 56 180 0.9 0.9 0.00 0.00 0.07 100 1015.0
20190117070051 56 225 0.0 0.0 0.00 0.00 0.07 100 1014.8
20190117070049 56 135 0.9 0.9 0.00 0.00 0.07 100 1015.0
20190117070037 56 105 0.9 0.9 0.00 0.00 0.07 100 1015.0
20190117070028 56 90 2.6 2.6 0.00 0.00 0.07 100 1014.9
20190117070024 56 135 0.9 0.9 0.00 0.00 0.07 100 1014.9
20190117070022 56 225 0.0 0.9 0.00 0.00 0.07 100 1014.9
20190117070019 56 225 0.0 0.0 0.00 0.00 0.07 100 1014.8
20190117070015 56 135 0.9 0.9 0.00 0.00 0.07 100 1015.0
20190117070004 56 105 0.9 0.9 0.00 0.00 0.07 100 1015.0
20190117065954 56 90 2.6 2.6 0.00 0.00 0.07 100 1014.9
20190117065950 56 92 1.7 2.6 0.00 0.00 0.07 100 1014.9
20190117065948 56 180 0.9 0.9 0.00 0.00 0.07 100 1015.0
20190117065942 56 135 0.9 0.9 0.00 0.00 0.07 100 1015.0
20190117065932 56 105 0.9 0.9 0.00 0.00 0.07 100 1015.0
20190117065921 56 90 2.6 2.6 0.00 0.00 0.07 100 1014.9
20190117065919 56 92 1.7 2.6 0.00 0.00 0.07 100 1014.9
20190117065917 56 225 0.0 2.6 0.00 0.00 0.07 100 1014.8
20190117065911 56 135 0.9 0.9 0.00 0.00 0.07 100 1015.0
20190117065848 56 135 0.9 0.9 0.00 0.00 0.07 100 1014.9
20190117065846 56 225 0.0 0.9 0.00 0.00 0.07 100 1014.9
20190117065840 56 135 0.9 0.9 0.00 0.00 0.07 100 1015.0
20190117065829 56 105 0.9 0.9 0.00 0.00 0.07 100 1015.0
20190117065816 56 85 3.5 3.5 0.00 0.00 0.07 100 1014.7
20190117065814 56 225 0.0 0.9 0.00 0.00 0.07 100 1014.9
20190117065806 56 135 0.9 0.9 0.00 0.00 0.07 100 1015.0
20190117065756 56 105 0.9 0.9 0.00 0.00 0.07 100 1015.0
20190117065745 56 225 0.0 2.6 0.00 0.00 0.07 100 1014.8
20190117065736 56 135 0.9 0.9 0.00 0.00 0.07 100 1015.0
20190117065713 56 180 0.9 0.9 0.00 0.00 0.07 100 1015.0
20190117065654 56 105 0.9 0.9 0.00 0.00 0.07 100 1015.0
20190117065644 56 103 1.7 4.3 0.00 0.00 0.07 100 1014.7
20190117065642 56 85 3.5 3.5 0.00 0.00 0.07 100 1014.7
20190117065613 56 103 1.7 4.3 0.00 0.00 0.07 100 1014.7
20190117065611 56 85 3.5 3.5 0.00 0.00 0.07 100 1014.7
20190117065602 56 135 0.9 0.9 0.00 0.00 0.07 100 1015.0
20190117065555 56 105 0.9 0.9 0.00 0.00 0.07 100 1015.0
20190117065542 56 103 1.7 4.3 0.00 0.00 0.07 100 1014.7
20190117065540 56 225 0.0 0.9 0.00 0.00 0.07 100 1014.9
20190117065530 56 135 0.9 0.9 0.00 0.00 0.07 100 1015.0
20190117065510 56 225 0.0 0.0 0.00 0.00 0.07 100 1014.8
20190117065508 56 171 0.9 1.7 0.00 0.00 0.07 100 1014.8
20190117065459 56 135 0.9 0.9 0.00 0.00 0.07 100 1015.0
20190117065441 56 103 1.7 4.3 0.00 0.00 0.07 100 1014.7
20190117065438 56 135 0.9 0.9 0.00 0.00 0.07 100 1014.9
20190117065426 56 135 0.9 0.9 0.00 0.00 0.07 100 1015.0
20190117065409 56 225 0.0 0.0 0.00 0.00 0.07 100 1014.8
20190117065406 56 135 0.9 0.9 0.00 0.00 0.07 100 1014.9
20190117065354 56 135 0.9 0.9 0.00 0.00 0.07 100 1015.0
20190117065336 56 225 0.0 0.9 0.00 0.00 0.07 100 1014.8
20190117065322 56 135 0.9 0.9 0.00 0.00 0.07 100 1015.0
20190117065303 56 225 0.0 0.0 0.00 0.00 0.07 100 1014.8
20190117065301 56 171 0.9 1.7 0.00 0.00 0.07 100 1014.8
20190117065254 56 135 0.9 0.9 0.00 0.00 0.07 100 1014.9
20190117065248 56 135 0.9 0.9 0.00 0.00 0.07 100 1015.0
20190117065230 56 225 0.0 2.6 0.00 0.00 0.07 100 1014.8
20190117065214 56 135 0.9 0.9 0.00 0.00 0.07 100 1015.0
20190117065127 56 225 0.0 0.0 0.00 0.00 0.07 100 1014.8
20190117065125 56 92 1.7 2.6 0.00 0.00 0.07 100 1014.9
20190117065107 56 135 0.9 0.9 0.00 0.00 0.07 100 1015.0
20190117065054 56 90 2.6 2.6 0.00 0.00 0.07 100 1014.9
20190117065019 56 225 0.0 0.0 0.00 0.00 0.07 100 1014.8
20190117064953 56 135 0.9 0.9 0.00 0.00 0.07 100 1015.0
20190117064939 56 180 0.9 0.9 0.00 0.00 0.07 100 1015.0
20190117064908 56 225 0.0 2.6 0.00 0.00 0.07 100 1014.8
20190117064906 56 171 0.9 1.7 0.00 0.00 0.07 100 1014.8
20190117064834 56 225 0.0 0.0 0.00 0.00 0.07 100 1014.8
20190117064801 56 225 0.0 0.9 0.00 0.00 0.07 100 1014.9
20190117064759 56 171 0.9 1.7 0.00 0.00 0.07 100 1014.8
20190117064727 56 90 2.6 2.6 0.00 0.00 0.07 100 1014.9
20190117064652 56 225 0.0 0.0 0.00 0.00 0.07 100 1014.8
20190117064615 56 225 0.0 0.9 0.00 0.00 0.07 100 1014.9
20190117064539 56 225 0.0 0.0 0.00 0.00 0.07 100 1014.8
20190117064459 56 180 0.9 0.9 0.00 0.00 0.07 100 1015.0
20190117064418 56 85 3.5 3.5 0.00 0.00 0.07 100 1014.7
20190117064416 56 171 0.9 1.7 0.00 0.00 0.07 100 1014.8
20190117064332 56 225 0.0 0.0 0.00 0.00 0.07 100 1014.8
20190117064330 56 92 1.7 2.6 0.00 0.00 0.07 100 1014.9
20190117064242 56 225 0.0 0.0 0.00 0.00 0.07 100 1014.8
20190117064240 56 171 0.9 1.7 0.00 0.00 0.07 100 1014.8
20190117064151 56 225 0.0 0.9 0.00 0.00 0.07 100 1014.9
20190117064102 56 225 0.0 0.9 0.00 0.00 0.07 100 1014.9
20190117064100 56 171 0.9 1.7 0.00 0.00 0.07 100 1014.8
20190117064049 56 180 0.0 0.9 0.00 0.00 0.07 100 1014.9
20190117064009 56 225 0.0 0.9 0.00 0.00 0.07 100 1014.9
20190117064007 56 171 0.9 1.7 0.00 0.00 0.07 100 1014.8
20190117063909 56 225 0.0 0.9 0.00 0.00 0.07 100 1014.8
20190117063810 56 225 0.0 0.0 0.00 0.00 0.07 100 1014.8
20190117063748 56 180 0.9 0.9 0.00 0.00 0.07 100 1014.9
20190117063738 56 90 2.6 2.6 0.00 0.00 0.07 100 1014.9
20190117063707 56 103 1.7 4.3 0.00 0.00 0.07 100 1014.7
20190117063705 56 92 1.7 2.6 0.00 0.00 0.07 100 1014.9
20190117063634 56 225 0.0 0.9 0.00 0.00 0.07 100 1014.9
20190117063602 56 225 0.0 0.0 0.00 0.00 0.07 100 1014.8
20190117063600 56 92 1.7 2.6 0.00 0.00 0.07 100 1014.9
20190117063527 56 225 0.0 0.9 0.00 0.00 0.07 100 1014.9
20190117063451 56 225 0.0 0.9 0.00 0.00 0.07 100 1014.9
20190117063449 56 171 0.9 1.7 0.00 0.00 0.07 100 1014.8
20190117063414 56 85 3.5 3.5 0.00 0.00 0.07 100 1014.7
20190117063337 56 225 0.0 0.0 0.00 0.00 0.07 100 1014.8
20190117063335 56 171 0.9 1.7 0.00 0.00 0.07 100 1014.8
20190117063257 56 180 0.9 0.9 0.00 0.00 0.07 100 1015.0
20190117063255 56 171 0.9 1.7 0.00 0.00 0.07 100 1014.8
20190117063217 56 180 0.9 0.9 0.00 0.00 0.07 100 1015.0
20190117063215 56 171 0.9 1.7 0.00 0.00 0.07 100 1014.8
20190117063146 56 225 0.0 0.0 0.00 0.00 0.07 100 1014.8
20190117063133 56 85 3.5 3.5 0.00 0.00 0.07 100 1014.7
20190117063049 56 225 0.0 2.6 0.00 0.00 0.07 100 1014.8
20190117063007 56 225 0.0 0.9 0.00 0.00 0.07 100 1014.9
20190117063004 56 171 0.9 1.7 0.00 0.00 0.07 100 1014.8
20190117062919 56 103 1.7 4.3 0.00 0.00 0.07 100 1014.7
20190117062845 56 225 0.0 0.0 0.00 0.00 0.07 100 1014.9
20190117062833 56 103 1.7 4.3 0.00 0.00 0.07 100 1014.7
20190117062745 56 85 3.5 3.5 0.00 0.00 0.07 100 1014.7
20190117062653 56 85 3.5 3.5 0.00 0.00 0.07 100 1014.7
20190117062603 56 225 0.0 0.9 0.00 0.00 0.07 100 1014.8
20190117062601 56 171 0.9 1.7 0.00 0.00 0.07 100 1014.8
20190117062544 56 225 0.0 0.9 0.00 0.00 0.07 100 1014.9
20190117062509 56 103 1.7 4.3 0.00 0.00 0.07 100 1014.7
20190117062414 56 103 1.7 4.3 0.00 0.00 0.07 100 1014.7
20190117062412 56 171 0.9 1.7 0.00 0.00 0.07 100 1014.8
20190117062316 56 103 1.7 4.3 0.00 0.00 0.07 100 1014.7
20190117062243 56 180 0.9 0.9 0.00 0.00 0.07 100 1015.0
20190117062217 56 225 0.0 0.9 0.00 0.00 0.07 100 1014.8
20190117062112 56 90 2.6 2.6 0.00 0.00 0.07 100 1014.9
20190117062006 56 85 3.5 3.5 0.00 0.00 0.07 100 1014.7
20190117061942 56 225 0.0 0.9 0.00 0.00 0.07 100 1014.8
20190117061900 56 85 3.5 3.5 0.00 0.00 0.07 100 1014.7
20190117061753 56 90 2.6 2.6 0.00 0.00 0.07 100 1014.9
20190117061642 56 103 1.7 4.3 0.00 0.00 0.07 100 1014.7
20190117061528 56 103 1.7 4.3 0.00 0.00 0.07 100 1014.7
20190117061412 56 90 2.6 2.6 0.00 0.00 0.07 100 1014.9
20190117061339 56 103 1.7 4.3 0.00 0.00 0.07 100 1014.7
20190117061251 56 85 3.5 3.5 0.00 0.00 0.07 100 1014.7
20190117061129 56 85 3.5 3.5 0.00 0.00 0.07 100 1014.7
20190117061038 56 85 3.5 3.5 0.00 0.00 0.07 100 1014.7
20190117061000 56 90 2.6 2.6 0.00 0.00 0.07 100 1014.9
20190117060959 56 171 0.9 1.7 0.00 0.00 0.07 100 1014.8
20190117060829 56 92 1.7 2.6 0.00 0.00 0.07 100 1014.9
20190117060737 56 90 2.6 2.6 0.00 0.00 0.07 100 1014.9
20190117060653 56 92 1.7 2.6 0.00 0.00 0.07 100 1014.9
20190117060514 56 171 0.9 1.7 0.00 0.00 0.07 100 1014.8
20190117060436 56 92 1.7 2.6 0.00 0.00 0.07 100 1014.9
20190117060332 56 171 0.9 1.7 0.00 0.00 0.07 100 1014.8
20190117060147 56 171 0.9 1.7 0.00 0.00 0.07 100 1014.8
20190117055958 56 171 0.9 1.7 0.00 0.00 0.07 100 1014.8
20190117055834 56 130 2.6 2.6 0.00 0.00 0.07 100 1014.8
20190117055807 56 171 0.9 1.7 0.00 0.00 0.07 100 1014.8
20190117055533 56 171 0.9 1.7 0.00 0.00 0.07 100 1014.8
20190117055231 56 135 0.9 2.6 0.00 0.00 0.07 100 1014.6
20190117054931 56 164 0.9 2.6 0.00 0.00 0.07 100 1014.6
20190117054629 56 103 2.6 2.6 0.00 0.00 0.07 100 1014.6
20190117054330 56 128 1.7 2.6 0.00 0.00 0.07 100 1014.4
20190117054027 56 96 1.7 1.7 0.00 0.00 0.07 100 1014.5
20190117053728 56 157 0.9 1.7 0.00 0.00 0.07 100 1014.5
20190117053425 56 112 0.9 1.7 0.00 0.00 0.07 100 1014.4
20190117052823 56 135 0.9 1.7 0.00 0.00 0.07 100 1014.5
20190117052806 56 121 0.9 2.6 0.00 0.00 0.07 100 1014.4
20190117052521 56 121 0.9 2.6 0.00 0.00 0.07 100 1014.4
20190117052220 56 99 1.7 4.3 0.00 0.00 0.07 100 1014.3
20190117051923 56 83 1.7 2.6 0.00 0.00 0.07 100 1014.3
20190117051618 56 103 1.7 1.7 0.00 0.00 0.07 100 1014.3
20190117051320 56 180 0.0 0.0 0.00 0.00 0.07 100 1014.2
20190117051016 56 209 0.0 0.9 0.00 0.00 0.07 100 1014.2
20190117050715 56 135 0.9 1.7 0.00 0.00 0.07 100 1014.2
20190117050504 56 135 0.9 1.7 0.00 0.00 0.07 100 1014.2
20190117050414 56 135 0.9 1.7 0.00 0.00 0.07 100 1014.2
20190117050113 56 121 0.9 0.9 0.00 0.00 0.07 100 1014.3
20190117045511 56 135 0.9 3.5 0.00 0.00 0.07 100 1014.2
20190117045211 56 81 2.6 4.3 0.00 0.00 0.07 100 1014.1
20190117044910 56 76 2.6 3.5 0.00 0.00 0.07 100 1014.0
20190117044306 56 90 1.7 5.2 0.00 0.00 0.07 100 1014.0
20190117043706 56 87 2.6 3.5 0.00 0.00 0.07 100 1013.9
20190117043403 56 81 1.7 2.6 0.00 0.00 0.07 100 1014.1
20190117043104 56 45 0.9 3.5 0.00 0.00 0.07 100 1014.1
20190117042802 56 85 1.7 3.5 0.00 0.00 0.07 100 1014.2
20190117042459 56 76 0.9 2.6 0.00 0.00 0.07 100 1014.1
20190117042158 56 90 1.7 2.6 0.00 0.00 0.07 100 1014.0
20190117041857 56 135 0.9 1.7 0.00 0.00 0.07 100 1014.2
20190117041556 56 202 0.0 1.7 0.00 0.00 0.07 100 1014.3
20190117041255 56 195 0.0 1.7 0.00 0.00 0.07 100 1014.2
20190117040653 56 102 1.7 4.3 0.00 0.00 0.07 100 1014.1
20190117040352 56 78 3.5 4.3 0.00 0.00 0.07 100 1014.0
20190117040051 56 81 2.6 2.6 0.00 0.00 0.07 100 1014.1
20190117035749 56 31 2.6 2.6 0.00 0.00 0.07 100 1014.1
20190117035448 56 45 1.7 2.6 0.00 0.00 0.07 100 1014.2
20190117035150 56 45 1.7 2.6 0.00 0.00 0.07 100 1014.1
20190117034848 56 45 0.0 0.9 0.00 0.00 0.07 100 1014.3
20190117034547 56 45 0.0 0.9 0.00 0.00 0.07 99 1014.2
20190117034244 56 45 0.9 1.7 0.00 0.00 0.07 100 1014.2
20190117033943 56 180 0.0 1.7 0.00 0.00 0.07 99 1014.3
20190117033642 56 45 0.9 2.6 0.00 0.00 0.07 100 1014.1
20190117033341 56 63 2.6 3.5 0.00 0.00 0.07 100 1014.1
20190117033039 56 67 1.7 3.5 0.00 0.00 0.07 100 1014.1
20190117032738 56 108 1.7 5.2 0.00 0.00 0.07 100 1014.1
20190117032437 56 108 3.5 3.5 0.00 0.00 0.07 100 1014.0
20190117032136 56 83 2.6 3.5 0.00 0.00 0.07 99 1013.9
20190117031837 57 72 2.6 2.6 0.00 0.00 0.07 100 1014.0
20190117031534 57 171 0.9 1.7 0.00 0.00 0.07 99 1014.2
20190117031235 57 180 0.9 0.9 0.00 0.00 0.07 99 1014.3
20190117030934 57 180 0.0 0.9 0.00 0.00 0.07 99 1014.0
20190117030633 57 180 0.0 0.9 0.00 0.00 0.07 99 1013.9
20190117030331 57 285 0.9 1.7 0.00 0.00 0.07 99 1014.1
20190117030029 57 315 1.7 3.5 0.00 0.00 0.07 99 1014.1
20190117025727 57 267 3.5 3.5 0.00 0.00 0.07 100 1014.0
20190117025426 57 270 2.6 3.5 0.00 0.00 0.07 99 1013.9
20190117024826 57 238 0.9 0.9 0.00 0.00 0.07 99 1013.8
20190117024523 57 225 0.0 0.9 0.00 0.00 0.07 99 1013.8
20190117024222 57 180 0.9 1.7 0.00 0.00 0.07 99 1013.9
20190117023921 57 130 1.7 1.7 0.00 0.00 0.07 99 1013.8
20190117023621 57 148 0.9 1.7 0.00 0.00 0.06 99 1013.8
20190117023019 57 180 0.9 1.7 0.00 0.00 0.05 99 1013.7
20190117022716 57 135 0.0 1.7 0.00 0.00 0.04 99 1013.8
20190117022415 57 123 0.9 1.7 0.00 0.00 0.04 100 1013.6
20190117022114 57 90 0.9 1.7 0.00 0.00 0.04 99 1013.7
20190117021813 57 76 0.0 0.0 0.00 0.00 0.04 99 1013.6
20190117021512 57 90 0.0 0.9 0.00 0.00 0.04 99 1013.5
20190117021211 57 90 0.0 0.9 0.00 0.00 0.04 99 1013.6
20190117020911 57 90 0.9 0.9 0.00 0.00 0.04 99 1013.6
20190117020309 57 90 0.9 2.6 0.00 0.00 0.02 99 1013.5
20190117015759 57 69 3.5 4.3 0.00 0.00 0.02 99 1013.3
20190117015705 57 69 3.5 4.3 0.00 0.00 0.02 99 1013.3
20190117015404 57 74 3.5 4.3 0.00 0.00 0.02 99 1013.2
20190117015103 57 87 3.5 4.3 0.00 0.00 0.02 99 1013.2
20190117014802 57 69 3.5 4.3 0.00 0.00 0.02 99 1013.4
20190117014200 57 74 3.5 5.2 0.00 0.00 0.02 98 1013.2
20190117013858 57 90 3.5 4.3 0.00 0.00 0.02 98 1013.3
20190117013256 57 225 0.0 0.0 0.00 0.00 0.02 99 1013.3
20190117012957 57 225 0.0 0.9 0.00 0.00 0.02 98 1013.4
20190117012654 57 225 0.0 0.9 0.00 0.00 0.02 98 1013.4
20190117012053 57 90 0.0 1.7 0.00 0.00 0.02 98 1013.6
20190117011450 57 90 0.9 2.6 0.00 0.00 0.02 98 1013.6
20190117011149 57 90 1.7 2.6 0.00 0.00 0.02 98 1013.5
20190117010848 57 90 0.9 2.6 0.00 0.00 0.02 98 1013.5
20190117010546 57 90 1.7 2.6 0.00 0.00 0.02 98 1013.4
20190117005946 57 78 1.7 1.7 0.00 0.00 0.02 98 1013.5
20190117005645 57 87 1.7 2.6 0.00 0.00 0.02 98 1013.6
20190117005342 58 94 1.7 2.6 0.00 0.00 0.02 98 1013.6
20190117005041 58 38 0.9 2.6 0.00 0.00 0.02 98 1013.7
20190117004740 58 67 0.9 2.6 0.00 0.00 0.02 97 1013.6
20190117004439 58 117 0.9 2.6 0.00 0.00 0.02 98 1013.6
20190117004138 58 67 1.7 2.6 0.00 0.00 0.02 98 1013.6
20190117003535 58 65 1.7 3.5 0.00 0.00 0.02 98 1013.5
20190117003234 58 75 0.9 2.6 0.00 0.00 0.02 98 1013.5
20190117002933 58 72 2.6 3.5 0.00 0.00 0.02 97 1013.5
20190117002632 58 83 2.6 4.3 0.00 0.00 0.02 97 1013.5
20190117002030 58 45 0.9 1.7 0.00 0.00 0.02 97 1013.5
20190117001729 58 90 0.9 0.9 0.00 0.00 0.02 98 1013.7
20190117001429 58 180 0.0 0.0 0.00 0.00 0.02 98 1013.7
20190117001127 58 180 0.0 0.9 0.00 0.00 0.02 97 1013.7
20190117000524 58 117 1.7 2.6 0.00 0.00 0.02 97 1013.7
20190117000223 58 101 2.6 3.5 0.00 0.00 0.02 97 1013.6
20190116235922 58 94 2.6 3.5 0.00 0.00 0.02 98 1013.7
20190116235621 58 92 2.6 4.3 0.00 0.00 0.02 97 1013.7
20190116235322 58 94 2.6 2.6 0.00 0.00 0.02 97 1013.6
20190116235115 58 128 0.9 2.6 0.00 0.00 0.02 98 1013.8
20190116235019 58 128 0.9 2.6 0.00 0.00 0.02 98 1013.8
20190116234719 58 92 1.7 4.3 0.00 0.00 0.02 97 1013.8
20190116234417 58 135 1.7 4.3 0.00 0.00 0.02 98 1013.8
20190116234116 58 96 3.5 6.1 0.00 0.00 0.02 98 1013.8
20190116233814 58 101 3.5 5.2 0.00 0.00 0.02 97 1013.8
20190116233515 58 90 3.5 6.1 0.00 0.00 0.02 98 1013.7
20190116233212 58 108 3.5 6.1 0.00 0.00 0.02 97 1013.9
20190116232911 58 94 2.6 5.2 0.00 0.00 0.02 97 1013.7
20190116232309 58 94 2.6 7.0 0.00 0.00 0.02 97 1013.9
20190116231707 58 90 5.2 7.0 0.00 0.00 0.02 97 1013.6
20190116231406 58 103 4.3 7.0 0.00 0.00 0.02 97 1013.8
20190116230502 58 103 2.6 6.1 0.00 0.00 0.02 96 1013.7
20190116230201 58 112 2.6 2.6 0.00 0.00 0.02 95 1013.7